| time (UTC) | temp F | wind direction | speed MPH | gust MPH | rain 1hr in | rain 24hr in | rain mn in | humidity % | barometer mb |
| 20260505091106 | 56 | 134 | 5.0 | 6.0 | 0.00 | 0.00 | 0.00 | 60 | 1011.6 |
| 20260505090604 | 57 | 138 | 3.0 | 10.0 | 0.00 | 0.00 | 0.00 | 59 | 1011.6 |
| 20260505085559 | 56 | 134 | 4.0 | 15.0 | 0.00 | 0.00 | 0.00 | 64 | 1011.6 |
| 20260505085057 | 56 | 162 | 5.0 | 9.0 | 0.00 | 0.00 | 0.00 | 64 | 1011.6 |
| 20260505084555 | 56 | 176 | 8.0 | 9.0 | 0.00 | 0.00 | 0.00 | 64 | 1011.9 |
| 20260505084053 | 56 | 153 | 3.0 | 7.0 | 0.00 | 0.00 | 0.00 | 64 | 1011.8 |
| 20260505083550 | 56 | 152 | 3.0 | 12.0 | 0.00 | 0.00 | 0.00 | 64 | 1011.8 |
| 20260505083046 | 56 | 141 | 3.0 | 9.0 | 0.00 | 0.00 | 0.00 | 63 | 1011.8 |
| 20260505082542 | 56 | 148 | 3.0 | 11.0 | 0.00 | 0.00 | 0.00 | 63 | 1011.9 |
| 20260505082039 | 56 | 126 | 3.0 | 9.0 | 0.00 | 0.00 | 0.00 | 62 | 1011.9 |
| 20260505081535 | 56 | 120 | 5.0 | 8.0 | 0.00 | 0.00 | 0.00 | 63 | 1011.8 |
| 20260505081033 | 56 | 116 | 11.0 | 14.0 | 0.00 | 0.00 | 0.00 | 62 | 1011.9 |
| 20260505080529 | 56 | 155 | 9.0 | 12.0 | 0.00 | 0.00 | 0.00 | 62 | 1011.8 |
| 20260505080026 | 56 | 140 | 5.0 | 7.0 | 0.00 | 0.00 | 0.00 | 62 | 1011.9 |
| 20260505075522 | 56 | 140 | 6.0 | 11.0 | 0.00 | 0.00 | 0.00 | 63 | 1012.2 |
| 20260505075019 | 56 | 143 | 7.0 | 12.0 | 0.00 | 0.00 | 0.00 | 62 | 1012.0 |
| 20260505074516 | 56 | 137 | 6.0 | 13.0 | 0.00 | 0.00 | 0.00 | 62 | 1011.9 |
| 20260505074013 | 56 | 170 | 5.0 | 11.0 | 0.00 | 0.00 | 0.00 | 61 | 1012.0 |
| 20260505073510 | 56 | 169 | 9.0 | 17.0 | 0.00 | 0.00 | 0.00 | 60 | 1012.3 |
| 20260505073009 | 56 | 174 | 4.0 | 15.0 | 0.00 | 0.00 | 0.00 | 58 | 1012.2 |
| 20260505072504 | 56 | 157 | 4.0 | 21.0 | 0.00 | 0.00 | 0.00 | 58 | 1012.3 |
| 20260505072000 | 56 | 156 | 13.0 | 15.0 | 0.00 | 0.00 | 0.00 | 56 | 1012.2 |
| 20260505071455 | 56 | 180 | 11.0 | 15.0 | 0.00 | 0.00 | 0.00 | 55 | 1012.0 |
| 20260505070954 | 57 | 156 | 4.0 | 12.0 | 0.00 | 0.00 | 0.00 | 55 | 1012.2 |
| 20260505070450 | 57 | 139 | 12.0 | 15.0 | 0.00 | 0.00 | 0.00 | 54 | 1012.0 |
| 20260505065946 | 57 | 174 | 8.0 | 21.0 | 0.00 | 0.00 | 0.00 | 54 | 1012.0 |
| 20260505065443 | 57 | 155 | 7.0 | 15.0 | 0.00 | 0.00 | 0.00 | 54 | 1012.3 |
| 20260505064940 | 57 | 169 | 12.0 | 13.0 | 0.00 | 0.00 | 0.00 | 54 | 1012.3 |
| 20260505064437 | 56 | 142 | 11.0 | 20.0 | 0.00 | 0.00 | 0.00 | 54 | 1012.2 |
| 20260505063935 | 57 | 144 | 10.0 | 21.0 | 0.00 | 0.00 | 0.00 | 54 | 1012.2 |
| 20260505063431 | 57 | 147 | 7.0 | 16.0 | 0.00 | 0.00 | 0.00 | 54 | 1012.4 |
| 20260505062928 | 57 | 152 | 9.0 | 18.0 | 0.00 | 0.00 | 0.00 | 53 | 1012.0 |
| 20260505062425 | 57 | 170 | 17.0 | 25.0 | 0.00 | 0.00 | 0.00 | 54 | 1012.0 |
| 20260505061921 | 57 | 192 | 11.0 | 24.0 | 0.00 | 0.00 | 0.00 | 55 | 1012.2 |
| 20260505061420 | 57 | 180 | 14.0 | 18.0 | 0.00 | 0.00 | 0.00 | 54 | 1012.0 |
| 20260505060917 | 57 | 178 | 15.0 | 26.0 | 0.00 | 0.00 | 0.00 | 55 | 1012.3 |
| 20260505060414 | 56 | 177 | 9.0 | 20.0 | 0.00 | 0.00 | 0.00 | 57 | 1012.0 |
| 20260505055910 | 56 | 188 | 9.0 | 18.0 | 0.00 | 0.00 | 0.00 | 57 | 1012.3 |
| 20260505055406 | 56 | 187 | 5.0 | 23.0 | 0.00 | 0.00 | 0.00 | 57 | 1012.2 |
| 20260505054903 | 56 | 182 | 13.0 | 21.0 | 0.00 | 0.00 | 0.00 | 59 | 1012.2 |
| 20260505054400 | 56 | 184 | 6.0 | 18.0 | 0.00 | 0.00 | 0.00 | 60 | 1012.0 |
| 20260505053859 | 57 | 154 | 8.0 | 21.0 | 0.00 | 0.00 | 0.00 | 59 | 1012.2 |
| 20260505053355 | 57 | 184 | 7.0 | 25.0 | 0.00 | 0.00 | 0.00 | 58 | 1012.0 |
| 20260505052852 | 57 | 161 | 14.0 | 21.0 | 0.00 | 0.00 | 0.00 | 58 | 1012.2 |
| 20260505052349 | 57 | 172 | 13.0 | 20.0 | 0.00 | 0.00 | 0.00 | 59 | 1011.8 |
| 20260505051846 | 57 | 156 | 10.0 | 19.0 | 0.00 | 0.00 | 0.00 | 59 | 1011.8 |
| 20260505051343 | 57 | 139 | 11.0 | 23.0 | 0.00 | 0.00 | 0.00 | 59 | 1011.9 |
| 20260505050842 | 57 | 142 | 15.0 | 22.0 | 0.00 | 0.00 | 0.00 | 59 | 1011.9 |
| 20260505050340 | 57 | 149 | 10.0 | 23.0 | 0.00 | 0.00 | 0.00 | 59 | 1011.9 |
| 20260505041307 | 61 | 145 | 5.0 | 15.0 | 0.00 | 0.00 | 0.00 | 42 | 1011.1 |
| 20260505040804 | 62 | 178 | 4.0 | 18.0 | 0.00 | 0.00 | 0.00 | 40 | 1011.0 |
| 20260505040301 | 62 | 161 | 6.0 | 14.0 | 0.00 | 0.00 | 0.00 | 40 | 1011.0 |
| 20260505035758 | 63 | 141 | 6.0 | 19.0 | 0.00 | 0.00 | 0.00 | 40 | 1010.7 |
| 20260505035254 | 62 | 191 | 7.0 | 15.0 | 0.00 | 0.00 | 0.00 | 41 | 1010.8 |
| 20260505034751 | 63 | 188 | 15.0 | 23.0 | 0.00 | 0.00 | 0.00 | 40 | 1010.4 |
| 20260505034248 | 63 | 187 | 7.0 | 15.0 | 0.00 | 0.00 | 0.00 | 40 | 1010.6 |
| 20260505033744 | 63 | 168 | 7.0 | 17.0 | 0.00 | 0.00 | 0.00 | 40 | 1010.3 |
| 20260505033242 | 63 | 163 | 3.0 | 16.0 | 0.00 | 0.00 | 0.00 | 43 | 1010.4 |
| 20260505032740 | 62 | 185 | 8.0 | 13.0 | 0.00 | 0.00 | 0.00 | 44 | 1010.2 |
| 20260505032236 | 62 | 180 | 6.0 | 11.0 | 0.00 | 0.00 | 0.00 | 46 | 1010.2 |
| 20260505031733 | 62 | 132 | 4.0 | 13.0 | 0.00 | 0.00 | 0.00 | 45 | 1010.3 |
| 20260505031229 | 63 | 167 | 6.0 | 16.0 | 0.00 | 0.00 | 0.00 | 43 | 1010.2 |
| 20260505030727 | 63 | 189 | 8.0 | 14.0 | 0.00 | 0.00 | 0.00 | 41 | 1010.4 |
| 20260505030223 | 63 | 183 | 11.0 | 18.0 | 0.00 | 0.00 | 0.00 | 41 | 1010.2 |
| 20260505025718 | 63 | 179 | 10.0 | 17.0 | 0.00 | 0.00 | 0.00 | 41 | 1010.2 |
| 20260505025217 | 63 | 172 | 5.0 | 13.0 | 0.00 | 0.00 | 0.00 | 42 | 1010.0 |
| 20260505024715 | 64 | 177 | 4.0 | 13.0 | 0.00 | 0.00 | 0.00 | 42 | 1010.0 |
| 20260505024211 | 64 | 172 | 11.0 | 16.0 | 0.00 | 0.00 | 0.00 | 42 | 1010.1 |
| 20260505023709 | 64 | 175 | 8.0 | 14.0 | 0.00 | 0.00 | 0.00 | 41 | 1010.0 |
| 20260505023206 | 64 | 172 | 11.0 | 14.0 | 0.00 | 0.00 | 0.00 | 41 | 1009.8 |
| 20260505022704 | 64 | 169 | 6.0 | 20.0 | 0.00 | 0.00 | 0.00 | 41 | 1009.8 |
| 20260505022200 | 65 | 186 | 13.0 | 21.0 | 0.00 | 0.00 | 0.00 | 41 | 1009.8 |
| 20260505021657 | 65 | 185 | 9.0 | 17.0 | 0.00 | 0.00 | 0.00 | 39 | 1009.8 |
| 20260505021154 | 66 | 165 | 5.0 | 17.0 | 0.00 | 0.00 | 0.00 | 37 | 1009.6 |
| 20260505020649 | 65 | 179 | 9.0 | 14.0 | 0.00 | 0.00 | 0.00 | 37 | 1009.5 |
| 20260505020145 | 66 | 161 | 7.0 | 16.0 | 0.00 | 0.00 | 0.00 | 37 | 1009.8 |
| 20260505015643 | 66 | 165 | 6.0 | 17.0 | 0.00 | 0.00 | 0.00 | 37 | 1009.8 |
| 20260505015139 | 66 | 165 | 12.0 | 18.0 | 0.00 | 0.00 | 0.00 | 36 | 1009.5 |
| 20260505014636 | 66 | 144 | 14.0 | 22.0 | 0.00 | 0.00 | 0.00 | 36 | 1009.8 |
| 20260505014133 | 66 | 156 | 12.0 | 21.0 | 0.00 | 0.00 | 0.00 | 36 | 1009.8 |
| 20260505013631 | 66 | 164 | 8.0 | 17.0 | 0.00 | 0.00 | 0.00 | 36 | 1009.9 |
| 20260505013128 | 67 | 162 | 8.0 | 16.0 | 0.00 | 0.00 | 0.00 | 36 | 1009.4 |
| 20260505012626 | 67 | 140 | 9.0 | 18.0 | 0.00 | 0.00 | 0.00 | 35 | 1009.9 |
| 20260505012122 | 69 | 171 | 15.0 | 15.0 | 0.00 | 0.00 | 0.00 | 30 | 1009.8 |
| 20260505011618 | 70 | 183 | 5.0 | 7.0 | 0.00 | 0.00 | 0.00 | 30 | 1009.8 |
| 20260505011116 | 72 | 158 | 4.0 | 6.0 | 0.00 | 0.00 | 0.00 | 28 | 1009.8 |
| 20260505010611 | 73 | 17 | 0.0 | 3.0 | 0.00 | 0.00 | 0.00 | 26 | 1009.6 |
| 20260505010108 | 73 | 31 | 1.0 | 3.0 | 0.00 | 0.00 | 0.00 | 27 | 1009.9 |
| 20260505005604 | 71 | 358 | 1.0 | 3.0 | 0.00 | 0.00 | 0.00 | 27 | 1009.9 |
| 20260505005101 | 70 | 91 | 1.0 | 3.0 | 0.00 | 0.00 | 0.00 | 29 | 1009.9 |
| 20260505004558 | 71 | 1 | 2.0 | 5.0 | 0.00 | 0.00 | 0.00 | 27 | 1009.9 |
| 20260505004055 | 73 | 80 | 2.0 | 3.0 | 0.00 | 0.00 | 0.00 | 27 | 1010.1 |
| 20260505003552 | 70 | 57 | 2.0 | 4.0 | 0.00 | 0.00 | 0.00 | 29 | 1010.1 |
| 20260505003049 | 69 | 149 | 3.0 | 4.0 | 0.00 | 0.00 | 0.00 | 30 | 1010.0 |
| 20260505002544 | 69 | 180 | 4.0 | 4.0 | 0.00 | 0.00 | 0.00 | 30 | 1009.9 |
| 20260505002043 | 69 | 118 | 2.0 | 5.0 | 0.00 | 0.00 | 0.00 | 32 | 1009.9 |
| 20260505001540 | 69 | 124 | 4.0 | 9.0 | 0.00 | 0.00 | 0.00 | 31 | 1009.9 |
| 20260505001037 | 69 | 333 | 1.0 | 5.0 | 0.00 | 0.00 | 0.00 | 32 | 1009.9 |
| 20260505000535 | 68 | 79 | 7.0 | 9.0 | 0.00 | 0.00 | 0.00 | 31 | 1010.0 |
| 20260505000032 | 69 | 85 | 2.0 | 7.0 | 0.00 | 0.00 | 0.00 | 30 | 1010.1 |
| 20260504235529 | 69 | 85 | 3.0 | 7.0 | 0.00 | 0.00 | 0.00 | 31 | 1010.0 |
| 20260504235025 | 69 | 146 | 3.0 | 6.0 | 0.00 | 0.00 | 0.00 | 30 | 1010.2 |
| 20260504234522 | 69 | 120 | 1.0 | 8.0 | 0.00 | 0.00 | 0.00 | 30 | 1010.1 |
| 20260504234020 | 70 | 42 | 3.0 | 7.0 | 0.00 | 0.00 | 0.00 | 32 | 1010.0 |
| 20260504233515 | 68 | 41 | 3.0 | 8.0 | 0.00 | 0.00 | 0.00 | 33 | 1010.2 |
| 20260504233012 | 68 | 353 | 3.0 | 6.0 | 0.00 | 0.00 | 0.00 | 32 | 1010.3 |
| 20260504232509 | 68 | 319 | 8.0 | 15.0 | 0.00 | 0.00 | 0.00 | 32 | 1010.2 |
| 20260504232007 | 68 | 65 | 6.0 | 16.0 | 0.00 | 0.00 | 0.00 | 33 | 1010.6 |
| 20260504231503 | 68 | 66 | 6.0 | 13.0 | 0.00 | 0.00 | 0.00 | 33 | 1010.4 |
| 20260504230959 | 68 | 66 | 7.0 | 13.0 | 0.00 | 0.00 | 0.00 | 33 | 1010.3 |
| 20260504230455 | 68 | 78 | 10.0 | 20.0 | 0.00 | 0.00 | 0.00 | 33 | 1010.3 |
| 20260504225955 | 67 | 40 | 10.0 | 18.0 | 0.00 | 0.00 | 0.00 | 32 | 1010.3 |
| 20260504225451 | 68 | 74 | 11.0 | 20.0 | 0.00 | 0.00 | 0.00 | 32 | 1010.4 |
| 20260504224948 | 70 | 62 | 5.0 | 18.0 | 0.00 | 0.00 | 0.00 | 31 | 1010.2 |
| 20260504224445 | 72 | 359 | 5.0 | 7.0 | 0.00 | 0.00 | 0.00 | 28 | 1010.3 |
| 20260504223942 | 71 | 29 | 2.0 | 5.0 | 0.00 | 0.00 | 0.00 | 29 | 1010.2 |
| 20260504223438 | 71 | 307 | 2.0 | 7.0 | 0.00 | 0.00 | 0.00 | 28 | 1010.3 |
| 20260504222933 | 71 | 355 | 6.0 | 8.0 | 0.00 | 0.00 | 0.00 | 27 | 1010.1 |
| 20260504222431 | 71 | 315 | 6.0 | 7.0 | 0.00 | 0.00 | 0.00 | 28 | 1010.2 |
| 20260504221929 | 70 | 345 | 4.0 | 11.0 | 0.00 | 0.00 | 0.00 | 29 | 1010.2 |
| 20260504221425 | 70 | 330 | 4.0 | 11.0 | 0.00 | 0.00 | 0.00 | 31 | 1010.1 |
| 20260504220923 | 69 | 309 | 5.0 | 14.0 | 0.00 | 0.00 | 0.00 | 31 | 1010.2 |
| 20260504220419 | 69 | 287 | 7.0 | 11.0 | 0.00 | 0.00 | 0.00 | 31 | 1010.3 |
| 20260504215916 | 69 | 287 | 5.0 | 13.0 | 0.00 | 0.00 | 0.00 | 33 | 1010.3 |
| 20260504215413 | 68 | 293 | 6.0 | 15.0 | 0.00 | 0.00 | 0.00 | 34 | 1010.2 |
| 20260504214909 | 68 | 262 | 8.0 | 18.0 | 0.00 | 0.00 | 0.00 | 34 | 1010.6 |
| 20260504214406 | 68 | 280 | 4.0 | 12.0 | 0.00 | 0.00 | 0.00 | 36 | 1010.7 |
| 20260504213903 | 67 | 316 | 5.0 | 13.0 | 0.00 | 0.00 | 0.00 | 35 | 1010.6 |
| 20260504213359 | 67 | 275 | 14.0 | 18.0 | 0.00 | 0.00 | 0.00 | 36 | 1010.4 |
| 20260504212856 | 66 | 251 | 11.0 | 20.0 | 0.00 | 0.00 | 0.00 | 36 | 1010.6 |
| 20260504212352 | 66 | 295 | 10.0 | 19.0 | 0.00 | 0.00 | 0.00 | 37 | 1010.6 |
| 20260504211850 | 65 | 266 | 6.0 | 20.0 | 0.00 | 0.00 | 0.00 | 38 | 1010.7 |
| 20260504211346 | 66 | 273 | 9.0 | 21.0 | 0.00 | 0.00 | 0.00 | 37 | 1010.6 |
| 20260504210843 | 66 | 268 | 11.0 | 17.0 | 0.00 | 0.00 | 0.00 | 36 | 1011.0 |
| 20260504210340 | 67 | 249 | 19.0 | 19.0 | 0.00 | 0.00 | 0.00 | 34 | 1011.1 |
| 20260504205837 | 67 | 307 | 9.0 | 19.0 | 0.00 | 0.00 | 0.00 | 34 | 1010.9 |
| 20260504205335 | 67 | 265 | 12.0 | 25.0 | 0.00 | 0.00 | 0.00 | 33 | 1011.0 |
| 20260504204833 | 67 | 221 | 9.0 | 16.0 | 0.00 | 0.00 | 0.00 | 32 | 1011.0 |
| 20260504204331 | 68 | 303 | 8.0 | 18.0 | 0.00 | 0.00 | 0.00 | 32 | 1010.9 |
| 20260504203830 | 68 | 257 | 5.0 | 20.0 | 0.00 | 0.00 | 0.00 | 33 | 1011.0 |
| 20260504203327 | 68 | 327 | 3.0 | 15.0 | 0.00 | 0.00 | 0.00 | 33 | 1010.8 |
| 20260504202822 | 68 | 272 | 5.0 | 12.0 | 0.00 | 0.00 | 0.00 | 32 | 1010.9 |
| 20260504202320 | 68 | 258 | 5.0 | 15.0 | 0.00 | 0.00 | 0.00 | 33 | 1010.8 |
| 20260504201817 | 69 | 280 | 11.0 | 17.0 | 0.00 | 0.00 | 0.00 | 32 | 1010.8 |
| 20260504201314 | 70 | 249 | 4.0 | 9.0 | 0.00 | 0.00 | 0.00 | 30 | 1010.7 |
| 20260504200811 | 72 | 217 | 0.0 | 5.0 | 0.00 | 0.00 | 0.00 | 28 | 1010.7 |
| 20260504200308 | 71 | 187 | 2.0 | 13.0 | 0.00 | 0.00 | 0.00 | 28 | 1010.9 |
| 20260504195804 | 72 | 84 | 4.0 | 7.0 | 0.00 | 0.00 | 0.00 | 27 | 1010.9 |
| 20260504195300 | 71 | 182 | 6.0 | 8.0 | 0.00 | 0.00 | 0.00 | 27 | 1010.9 |
| 20260504194757 | 71 | 178 | 3.0 | 13.0 | 0.00 | 0.00 | 0.00 | 28 | 1011.0 |
| 20260504194253 | 71 | 159 | 6.0 | 9.0 | 0.00 | 0.00 | 0.00 | 28 | 1010.9 |
| 20260504193749 | 71 | 156 | 5.0 | 11.0 | 0.00 | 0.00 | 0.00 | 29 | 1010.9 |
| 20260504193247 | 71 | 99 | 4.0 | 10.0 | 0.00 | 0.00 | 0.00 | 27 | 1011.2 |
| 20260504192745 | 71 | 168 | 9.0 | 11.0 | 0.00 | 0.00 | 0.00 | 28 | 1011.1 |
| 20260504192243 | 71 | 132 | 5.0 | 7.0 | 0.00 | 0.00 | 0.00 | 29 | 1011.1 |
| 20260504191741 | 71 | 116 | 3.0 | 10.0 | 0.00 | 0.00 | 0.00 | 28 | 1011.4 |
| 20260504191238 | 71 | 178 | 10.0 | 12.0 | 0.00 | 0.00 | 0.00 | 28 | 1011.4 |
| 20260504190733 | 71 | 186 | 6.0 | 11.0 | 0.00 | 0.00 | 0.00 | 28 | 1011.2 |
| 20260504190230 | 70 | 104 | 3.0 | 9.0 | 0.00 | 0.00 | 0.00 | 29 | 1011.2 |
| 20260504185726 | 71 | 159 | 10.0 | 11.0 | 0.00 | 0.00 | 0.00 | 28 | 1011.5 |
| 20260504185223 | 71 | 120 | 5.0 | 12.0 | 0.00 | 0.00 | 0.00 | 29 | 1011.6 |
| 20260504184719 | 71 | 132 | 6.0 | 14.0 | 0.00 | 0.00 | 0.00 | 28 | 1011.5 |
| 20260504184216 | 71 | 116 | 9.0 | 20.0 | 0.00 | 0.00 | 0.00 | 29 | 1011.6 |
| 20260504183711 | 71 | 95 | 5.0 | 23.0 | 0.00 | 0.00 | 0.00 | 30 | 1011.7 |
| 20260504183209 | 72 | 151 | 5.0 | 15.0 | 0.00 | 0.00 | 0.00 | 30 | 1011.5 |
| 20260504182707 | 72 | 159 | 4.0 | 15.0 | 0.00 | 0.00 | 0.00 | 29 | 1011.8 |
| 20260504182204 | 71 | 131 | 6.0 | 19.0 | 0.00 | 0.00 | 0.00 | 29 | 1011.7 |
| 20260504181701 | 71 | 131 | 9.0 | 21.0 | 0.00 | 0.00 | 0.00 | 30 | 1011.8 |
| 20260504181159 | 71 | 149 | 4.0 | 13.0 | 0.00 | 0.00 | 0.00 | 30 | 1011.8 |
| 20260504180657 | 72 | 129 | 5.0 | 10.0 | 0.00 | 0.00 | 0.00 | 29 | 1012.0 |
| 20260504180156 | 71 | 167 | 7.0 | 18.0 | 0.00 | 0.00 | 0.00 | 31 | 1012.0 |
| 20260504175652 | 71 | 152 | 10.0 | 17.0 | 0.00 | 0.00 | 0.00 | 31 | 1012.2 |
| 20260504175149 | 71 | 115 | 7.0 | 16.0 | 0.00 | 0.00 | 0.00 | 30 | 1012.2 |
| 20260504174647 | 70 | 148 | 7.0 | 18.0 | 0.00 | 0.00 | 0.00 | 31 | 1012.0 |
| 20260504174144 | 71 | 199 | 9.0 | 24.0 | 0.00 | 0.00 | 0.00 | 31 | 1012.5 |
| 20260504173641 | 70 | 152 | 3.0 | 17.0 | 0.00 | 0.00 | 0.00 | 33 | 1012.3 |
| 20260504173138 | 70 | 142 | 15.0 | 26.0 | 0.00 | 0.00 | 0.00 | 31 | 1012.3 |
| 20260504172635 | 69 | 124 | 15.0 | 20.0 | 0.00 | 0.00 | 0.00 | 32 | 1012.4 |
| 20260504172131 | 69 | 172 | 6.0 | 20.0 | 0.00 | 0.00 | 0.00 | 32 | 1012.3 |
| 20260504171628 | 69 | 154 | 4.0 | 16.0 | 0.00 | 0.00 | 0.00 | 33 | 1012.4 |
| 20260504171125 | 69 | 155 | 7.0 | 19.0 | 0.00 | 0.00 | 0.00 | 33 | 1012.4 |
| 20260504170621 | 68 | 158 | 4.0 | 18.0 | 0.00 | 0.00 | 0.00 | 34 | 1012.7 |
| 20260504170119 | 69 | 117 | 17.0 | 17.0 | 0.00 | 0.00 | 0.00 | 32 | 1012.6 |
| 20260504151004 | 64 | 139 | 5.0 | 15.0 | 0.00 | 0.00 | 0.00 | 43 | 1013.2 |
| 20260504150502 | 63 | 136 | 9.0 | 16.0 | 0.00 | 0.00 | 0.00 | 44 | 1013.1 |
| 20260504140928 | 62 | 160 | 6.0 | 12.0 | 0.00 | 0.00 | 0.00 | 46 | 1013.0 |
| 20260504140424 | 61 | 128 | 4.0 | 12.0 | 0.00 | 0.00 | 0.00 | 46 | 1013.1 |
| 20260504130349 | 57 | 170 | 4.0 | 7.0 | 0.00 | 0.00 | 0.00 | 51 | 1013.0 |
| 20260504120312 | 57 | 161 | 7.0 | 12.0 | 0.00 | 0.00 | 0.00 | 51 | 1013.0 |
| 20260504110236 | 59 | 141 | 4.0 | 14.0 | 0.00 | 0.00 | 0.00 | 45 | 1013.1 |
| 20260504100200 | 59 | 143 | 5.0 | 13.0 | 0.00 | 0.00 | 0.00 | 40 | 1013.1 |